Simultaneous Nadir Overpasses (SNOs) Predictions

Prediction of SNOs between GOES-16 and TERRA Satellite Orbit:

Table of predicted SNOs for the next 14.0 days since TLE Epoch: 4/21/2023
Index Date Time (GOES-16) GOES-16 Lat,Lon TERRA Lat,Lon Distance(km) Time Diff (sec)
1 04/23/2023 02:52:26 -0.06, -75.20 0.69, -71.58 410.70 80
2 04/23/2023 15:12:40 0.06, -75.20 0.35, -76.50 148.07 80
3 04/25/2023 14:59:09 0.05, -75.20 -0.52, -72.60 296.88 80
4 04/26/2023 03:19:29 -0.05, -75.21 -0.57, -77.53 265.36 80
5 04/28/2023 03:00:38 -0.04, -75.22 0.27, -73.62 180.59 80
6 04/28/2023 15:20:51 0.04, -75.22 0.75, -78.54 377.72 80
7 04/30/2023 15:07:18 0.03, -75.24 -0.07, -74.62 69.53 80
8 05/01/2023 03:27:40 -0.03, -75.25 -0.95, -79.58 492.04 80
9 05/03/2023 03:11:27 -0.03, -75.27 -0.10, -75.66 43.81 80
10 05/05/2023 02:52:33 -0.03, -75.30 0.71, -71.74 405.01 80
11 05/05/2023 15:12:46 0.03, -75.31 0.34, -76.65 152.72 80
